Location: Unspecified
(41.5516°N, 88.1098°W)
Time: 06:03:45
(UTC-05:00)

Cosmos 1674 - Visible Passes

Search period start: 26 May 2017 00:00
Search period end: 05 June 2017 00:00
Orbit: 499 x 522 km, 82.5° (Epoch: 25 May)

Date Brightness Start Highest point End Pass type
(mag) Time Alt. Az. Time Alt. Az. Time Alt. Az.
26 May 5.2 00:48:35 15° ENE 00:48:35 15° ENE 00:49:59 10° NE visible
26 May 4.1 02:23:29 29° NW 02:23:29 29° NW 02:26:19 10° NNW visible
27 May 5.4 00:32:09 12° ENE 00:32:09 12° ENE 00:32:54 10° ENE visible
27 May 3.9 02:07:03 35° NW 02:07:03 35° NW 02:09:54 10° N visible
28 May 3.8 01:50:36 40° NW 01:50:36 40° NW 01:53:27 10° N visible
29 May 3.7 01:34:08 45° NNW 01:34:08 45° NNW 01:36:58 10° N visible
30 May 3.7 01:17:40 45° N 01:17:40 45° N 01:20:26 10° N visible
31 May 3.8 01:01:11 42° NNE 01:01:11 42° NNE 01:03:52 10° NNE visible
01 Jun 4.0 00:44:40 37° NE 00:44:40 37° NE 00:47:15 10° NNE visible
01 Jun 5.4 02:19:34 10° WNW 02:19:34 10° WNW 02:20:00 10° WNW visible
02 Jun 4.2 00:28:10 32° NE 00:28:10 32° NE 00:30:37 10° NNE visible
02 Jun 5.2 02:03:04 13° WNW 02:03:04 13° WNW 02:04:37 10° NW visible
03 Jun 4.4 00:11:38 27° NE 00:11:38 27° NE 00:13:55 10° NNE visible
03 Jun 5.0 01:46:32 16° WNW 01:46:32 16° WNW 01:48:36 10° NNW visible
03 Jun 4.6 23:55:06 22° ENE 23:55:06 22° ENE 23:57:10 10° NNE visible
04 Jun 4.8 01:29:59 19° WNW 01:29:59 19° WNW 01:32:24 10° NNW visible
04 Jun 4.8 23:38:32 18° ENE 23:38:32 18° ENE 23:40:20 10° NE visible
